ONEWEB-0137 (47283 NORAD) Tracking and Keplerian Element Data
This shows tracking and keplerian element data for the satellite.
Feedback or suggestion? Click here.
Element | Value |
Catalog | 47283 |
Name | ONEWEB-0137 |
Epoch Orbit | 171 |
Epoch Day | 99.91667824 |
Epoch Year | 2021 |
RAAN | 7.3482 |
Inclination | 87.9625 |
Eccentricity | 0.0002029 |
Argument of Perigee | 97.6248 |
Mean Anonmoly | 343.5957 |
Mean Motion | 13.28610585 |
Decay Rate | -0.0003824 |
L1 | 1 47283U 20100AB 21099.91667824 -.00038240 00000-0 -84048-1 0 9995 |
L2 | 2 47283 87.9625 7.3482 0002029 97.6248 343.5957 13.28610585 1710 |
Live tracking and technical data element details for ONEWEB-0137 (NORAD 47283). ONEWEB-0137 can be tracked NOW for your location showing map with azimuth and elevation plus other details from your city location.
Track the satellite on the map from your city or location and see movement details for azimuth, elevation, latitude, longitude, range, height, and movement on the map or in text.
IsCatalogInMostPopularTable: catalog: 47283, numindb: 36
Update: records affected: 1
GetName: 47283 ONEWEB-0137
Hit Count: updated at: Sat, 10 Apr 2021 19:21:40 GMT